When you browse on this site, cookies collect data to enhance your experience and personalize the content and advertising you see.
Visit our Privacy Policy to learn more. By continuing to use the site, you agree to this use of cookies and data.
  • En España
  • Lista de países
  • Para 7 días
  • Temperatura del agua
  • Mapa Satelital
  • El tiempo en el mapa
  • Informadores
  • user-avatar
    Iniciar sesión

    Tiempo cada hora Donec

    Hoy, 25 Mayo, Sábado

    Tiempo Temperatura Precipitaciones Viento Presión Humedad
    00:00 +13°C° 0.1 mm 3 mps 737 mmHg 97%
    01:00 +13°C° 0.1 mm 3 mps 736 mmHg 98%
    02:00 +13°C° 0.1 mm 3 mps 736 mmHg 98%
    03:00 +13°C° 0 mm 3 mps 736 mmHg 97%
    04:00 +13°C° 0 mm 3 mps 736 mmHg 97%
    05:00 +14°C° 0 mm 2 mps 736 mmHg 96%
    06:00 +14°C° 0.2 mm 3 mps 736 mmHg 95%
    07:00 +14°C° 0.2 mm 3 mps 735 mmHg 94%
    08:00 +14°C° 0.2 mm 3 mps 735 mmHg 94%
    09:00 +16°C° 1.2 mm 3 mps 735 mmHg 93%
    10:00 +16°C° 1.2 mm 3 mps 735 mmHg 93%
    11:00 +17°C° 1.2 mm 2 mps 735 mmHg 93%
    12:00 +17°C° 0.2 mm 2 mps 735 mmHg 89%
    13:00 +18°C° 0.2 mm 2 mps 734 mmHg 86%
    14:00 +19°C° 0.2 mm 2 mps 734 mmHg 83%
    15:00 +20°C° 0.2 mm 2 mps 734 mmHg 81%
    16:00 +20°C° 0.2 mm 2 mps 734 mmHg 79%
    17:00 +20°C° 0.2 mm 2 mps 733 mmHg 78%
    18:00 +19°C° 0.9 mm 2 mps 733 mmHg 83%
    19:00 +17°C° 0.9 mm 2 mps 733 mmHg 88%
    20:00 +16°C° 0.9 mm 2 mps 733 mmHg 93%
    21:00 +15°C° 0 mm 2 mps 733 mmHg 94%
    22:00 +14°C° 0 mm 2 mps 733 mmHg 94%
    23:00 +12°C° 0 mm 3 mps 733 mmHg 95%

    Mañana, 26 Mayo, Domingo

    Tiempo Temperatura Precipitaciones Viento Presión Humedad
    00:00 +13°C° 0 mm 2 mps 733 mmHg 96%
    01:00 +12°C° 0 mm 2 mps 734 mmHg 96%
    02:00 +10°C° 0 mm 2 mps 734 mmHg 97%
    03:00 +10°C° 0 mm 2 mps 734 mmHg 96%
    04:00 +10°C° 0 mm 2 mps 734 mmHg 96%
    05:00 +10°C° 0 mm 2 mps 734 mmHg 96%
    06:00 +12°C° 0 mm 2 mps 734 mmHg 91%
    07:00 +12°C° 0 mm 3 mps 735 mmHg 87%
    08:00 +14°C° 0 mm 3 mps 735 mmHg 82%
    09:00 +16°C° 0 mm 3 mps 735 mmHg 74%
    10:00 +17°C° 0 mm 3 mps 735 mmHg 66%
    11:00 +18°C° 0 mm 3 mps 735 mmHg 59%
    12:00 +18°C° 0 mm 4 mps 735 mmHg 57%
    13:00 +19°C° 0 mm 4 mps 735 mmHg 55%
    14:00 +19°C° 0 mm 4 mps 734 mmHg 54%
    15:00 +19°C° 0 mm 4 mps 734 mmHg 56%
    16:00 +19°C° 0 mm 4 mps 734 mmHg 57%
    17:00 +18°C° 0 mm 4 mps 734 mmHg 59%
    18:00 +17°C° 0 mm 3 mps 734 mmHg 65%
    19:00 +14°C° 0 mm 3 mps 734 mmHg 72%
    20:00 +14°C° 0 mm 2 mps 734 mmHg 78%
    21:00 +13°C° 0 mm 2 mps 735 mmHg 82%
    22:00 +12°C° 0 mm 2 mps 735 mmHg 86%
    23:00 +10°C° 0 mm 2 mps 735 mmHg 90%

    Pasado mañana, 27 Mayo, Lunes

    Tiempo Temperatura Precipitaciones Viento Presión Humedad
    00:00 +10°C° 0 mm 2 mps 735 mmHg 89%
    01:00 +10°C° 0 mm 2 mps 735 mmHg 88%
    02:00 +10°C° 0 mm 3 mps 735 mmHg 88%
    03:00 +10°C° 0 mm 3 mps 735 mmHg 88%
    04:00 +10°C° 0 mm 3 mps 736 mmHg 87%
    05:00 +11°C° 0 mm 3 mps 736 mmHg 87%
    06:00 +12°C° 0 mm 4 mps 736 mmHg 81%
    07:00 +13°C° 0 mm 4 mps 736 mmHg 74%
    08:00 +15°C° 0 mm 5 mps 737 mmHg 68%
    09:00 +15°C° 0 mm 5 mps 737 mmHg 69%
    10:00 +15°C° 0 mm 5 mps 737 mmHg 70%
    11:00 +16°C° 0 mm 5 mps 737 mmHg 70%
    12:00 +16°C° 0.1 mm 5 mps 737 mmHg 72%
    13:00 +16°C° 0.1 mm 5 mps 737 mmHg 73%
    14:00 +17°C° 0.1 mm 4 mps 737 mmHg 75%
    15:00 +18°C° 0.1 mm 4 mps 737 mmHg 74%
    16:00 +19°C° 0.1 mm 4 mps 737 mmHg 72%
    17:00 +20°C° 0.1 mm 4 mps 737 mmHg 71%
    18:00 +19°C° 0.4 mm 3 mps 737 mmHg 78%
    19:00 +17°C° 0.4 mm 3 mps 737 mmHg 85%
    20:00 +16°C° 0.4 mm 3 mps 737 mmHg 92%
    21:00 +16°C° 0 mm 3 mps 737 mmHg 93%
    22:00 +15°C° 0 mm 2 mps 737 mmHg 94%
    23:00 +14°C° 0 mm 2 mps 738 mmHg 95%

    28 Mayo, Martes

    Tiempo Temperatura Precipitaciones Viento Presión Humedad
    00:00 +14°C° 0 mm 2 mps 738 mmHg 95%
    01:00 +14°C° 0 mm 2 mps 738 mmHg 96%
    02:00 +14°C° 0 mm 2 mps 738 mmHg 96%
    03:00 +14°C° 0 mm 2 mps 738 mmHg 96%
    04:00 +13°C° 0 mm 3 mps 738 mmHg 96%
    05:00 +14°C° 0 mm 3 mps 738 mmHg 96%
    06:00 +16°C° 0 mm 3 mps 738 mmHg 91%
    07:00 +18°C° 0 mm 3 mps 738 mmHg 86%
    08:00 +20°C° 0 mm 4 mps 738 mmHg 82%
    09:00 +21°C° 0.3 mm 4 mps 739 mmHg 76%
    10:00 +22°C° 0.3 mm 4 mps 739 mmHg 69%
    11:00 +25°C° 0.3 mm 5 mps 739 mmHg 63%
    12:00 +25°C° 0.3 mm 4 mps 739 mmHg 65%
    13:00 +25°C° 0.3 mm 4 mps 738 mmHg 66%
    14:00 +25°C° 0.3 mm 4 mps 738 mmHg 68%
    15:00 +23°C° 1.3 mm 4 mps 738 mmHg 75%
    16:00 +21°C° 1.3 mm 4 mps 738 mmHg 83%
    17:00 +20°C° 1.3 mm 4 mps 738 mmHg 91%
    18:00 +20°C° 1 mm 3 mps 738 mmHg 91%
    19:00 +20°C° 1 mm 3 mps 738 mmHg 91%
    20:00 +19°C° 1 mm 3 mps 738 mmHg 91%
    21:00 +18°C° 0 mm 3 mps 738 mmHg 91%
    22:00 +18°C° 0 mm 3 mps 738 mmHg 91%
    23:00 +17°C° 0 mm 3 mps 738 mmHg 92%

    29 Mayo, Miércoles

    Tiempo Temperatura Precipitaciones Viento Presión Humedad
    00:00 +17°C° 0 mm 3 mps 738 mmHg 92%
    01:00 +17°C° 0 mm 3 mps 738 mmHg 93%
    02:00 +17°C° 0 mm 3 mps 738 mmHg 94%
    03:00 +17°C° 0 mm 3 mps 738 mmHg 94%
    04:00 +17°C° 0 mm 3 mps 737 mmHg 94%
    05:00 +17°C° 0 mm 4 mps 737 mmHg 94%
    06:00 +18°C° 0 mm 4 mps 737 mmHg 86%
    07:00 +20°C° 0 mm 5 mps 737 mmHg 78%
    08:00 +21°C° 0 mm 6 mps 737 mmHg 70%
    09:00 +22°C° 0 mm 6 mps 737 mmHg 68%
    10:00 +23°C° 0 mm 6 mps 737 mmHg 65%
    11:00 +24°C° 0 mm 6 mps 737 mmHg 62%
    12:00 +24°C° 0 mm 6 mps 737 mmHg 63%
    13:00 +24°C° 0 mm 6 mps 737 mmHg 64%
    14:00 +26°C° 0 mm 6 mps 737 mmHg 65%
    15:00 +25°C° 0.9 mm 5 mps 737 mmHg 72%
    16:00 +23°C° 0.9 mm 4 mps 737 mmHg 78%
    17:00 +23°C° 0.9 mm 4 mps 737 mmHg 84%
    18:00 +21°C° 2 mm 3 mps 738 mmHg 87%
    19:00 +20°C° 2 mm 2 mps 738 mmHg 89%
    20:00 +19°C° 2 mm 2 mps 738 mmHg 92%
    21:00 +18°C° 0.4 mm 2 mps 739 mmHg 94%
    22:00 +17°C° 0.4 mm 2 mps 739 mmHg 95%
    23:00 +17°C° 0.4 mm 2 mps 739 mmHg 97%

    30 Mayo, Jueves

    Tiempo Temperatura Precipitaciones Viento Presión Humedad
    00:00 +16°C° 1.5 mm 2 mps 739 mmHg 97%
    01:00 +14°C° 1.5 mm 3 mps 740 mmHg 97%
    02:00 +14°C° 1.5 mm 3 mps 740 mmHg 96%
    03:00 +13°C° 0.1 mm 3 mps 741 mmHg 96%
    04:00 +13°C° 0.1 mm 3 mps 741 mmHg 96%
    05:00 +12°C° 0.1 mm 3 mps 742 mmHg 96%
    06:00 +13°C° 0 mm 3 mps 743 mmHg 89%
    07:00 +13°C° 0 mm 3 mps 743 mmHg 82%
    08:00 +14°C° 0 mm 3 mps 744 mmHg 75%
    09:00 +16°C° 0 mm 3 mps 744 mmHg 65%
    10:00 +17°C° 0 mm 3 mps 744 mmHg 55%
    11:00 +18°C° 0 mm 3 mps 745 mmHg 45%
    12:00 +19°C° 0 mm 3 mps 745 mmHg 43%
    13:00 +19°C° 0 mm 3 mps 745 mmHg 40%
    14:00 +20°C° 0 mm 3 mps 745 mmHg 37%
    15:00 +20°C° 0 mm 3 mps 745 mmHg 40%
    16:00 +19°C° 0 mm 2 mps 744 mmHg 42%
    17:00 +19°C° 0 mm 2 mps 744 mmHg 44%
    18:00 +17°C° 0 mm 2 mps 744 mmHg 52%
    19:00 +15°C° 0 mm 2 mps 744 mmHg 59%
    20:00 +13°C° 0 mm 2 mps 744 mmHg 66%
    21:00 +12°C° 0 mm 2 mps 744 mmHg 66%
    22:00 +10°C° 0 mm 2 mps 744 mmHg 65%
    23:00 +10°C° 0 mm 2 mps 744 mmHg 64%
    Mostrar más